Ainsworth, NE

11:26 PM CST on December 12, 2019 (GMT -0600)
Ainsworth Municipal

Weather History for KANW - October, 2019

Change the Weather History Date:

Monday, October 21, 2019

  Actual Average Record
Temperature  
Mean Temperature 38 °F -  
Max Temperature 45 °F 57 °F 80 °F (2003)
Min Temperature 33 °F 35 °F 26 °F (1996)
Degree Days  
Heating Degree Days 26    
Moisture  
Dew Point 34 °F    
Average Humidity 85    
Maximum Humidity 100    
Minimum Humidity 54    
Precipitation  
Precipitation 0.17 in - - ()
Sea Level Pressure  
Sea Level Pressure 29.67 in    
Wind  
Wind Speed 21 mph ()    
Max Wind Speed 34 mph    
Max Gust Speed 50 mph    
Visibility 7.9 miles    
Events Rain , Snow    
Averages and records for this station are not official NWS values.
T = Trace of Precipitation, MM = Missing Value Source: Averaged Metar Reports

Daily Weather History Graph

Daily Weather History Graph

Search for Another Location

Airport or City:

Astronomy

Oct. 21, 2019 Rise Set
Actual Time 7:59 AM CDT 6:48 PM CDT
Civil Twilight 7:31 AM CDT 7:17 PM CDT
Nautical Twilight 6:58 AM CDT 7:49 PM CDT
Astronomical Twilight 6:25 AM CDT 8:22 PM CDT
Moon No Moon Rise 3:23 PM CDT (10/21)
Length of Visible Light 11h 45m
Length of Day
10h 48m
Waning Gibbous, 48% of the Moon is Illuminated
Oct 21
Waning Gibbous
Oct 27
New
Nov 4
First Quarter
Nov 12
Full
Nov 19
Last Quarter

Hourly Weather History & Observations

Time (CDT) Temp. Windchill Dew Point Humidity Pressure Visibility Wind Dir Wind Speed Gust Speed Precip Events Conditions
12:15 AM 41.4 °F 33.3 °F 37.8 °F 87% 29.49 in 10.0 mi NW 16.1 mph 24.2 mph N/A   Scattered Clouds
12:35 AM 40.3 °F 31.6 °F 36.1 °F 85% 29.49 in 10.0 mi WNW 17.3 mph 25.3 mph N/A   Mostly Cloudy
12:55 AM 39.6 °F 29.7 °F 34.9 °F 83% 29.49 in 10.0 mi WNW 20.7 mph 31.1 mph N/A   Overcast
1:15 AM 38.3 °F 27.6 °F 32.9 °F 81% 29.49 in 10.0 mi WNW 23.0 mph 31.1 mph N/A   Overcast
1:35 AM 37.4 °F 26.4 °F 32.5 °F 83% 29.49 in 10.0 mi WNW 23.0 mph 28.8 mph N/A   Overcast
1:55 AM 37.4 °F 27.2 °F 32.9 °F 84% 29.49 in 10.0 mi WNW 19.6 mph 31.1 mph N/A   Overcast
2:15 AM 37.0 °F 25.9 °F 32.9 °F 85% 29.49 in 10.0 mi WNW 23.0 mph 28.8 mph N/A   Overcast
2:35 AM 36.7 °F 25.1 °F 32.9 °F 86% 29.49 in 10.0 mi WNW 24.2 mph 32.2 mph N/A   Overcast
2:55 AM 36.5 °F 26.7 °F 33.1 °F 87% 29.49 in 10.0 mi NW 17.3 mph 31.1 mph N/A   Overcast
3:15 AM 36.5 °F 26.3 °F 33.1 °F 87% 29.49 in 10.0 mi NW 18.4 mph 31.1 mph N/A   Overcast
3:35 AM 36.0 °F 24.4 °F 33.1 °F 89% 29.49 in 10.0 mi NW 23.0 mph 28.8 mph N/A   Overcast
3:55 AM 35.8 °F 24.2 °F 34.2 °F 94% 29.49 in 10.0 mi NW 23.0 mph 32.2 mph N/A Rain Light Rain
4:15 AM 35.4 °F 23.7 °F 34.2 °F 95% 29.49 in 5.0 mi NW 23.0 mph 34.5 mph N/A Snow Light Snow
4:35 AM 34.0 °F 23.0 °F 34.0 °F 100% 29.50 in 0.5 mi NW 18.4 mph 32.2 mph N/A Snow Snow
4:55 AM 34.0 °F 22.4 °F 34.0 °F 100% 29.50 in 0.5 mi NW 20.7 mph 31.1 mph N/A Snow Snow
5:15 AM 33.8 °F 22.5 °F 33.8 °F 100% 29.50 in 0.5 mi NW 19.6 mph 28.8 mph N/A Snow Snow
5:35 AM 33.8 °F 21.9 °F 33.8 °F 100% 29.50 in 1.2 mi NW 21.9 mph 29.9 mph N/A Snow Light Snow
5:55 AM 34.0 °F 22.1 °F 34.0 °F 100% 29.51 in 2.0 mi NW 21.9 mph 29.9 mph N/A Snow Light Snow
6:15 AM 34.2 °F 22.6 °F 34.2 °F 100% 29.51 in 4.0 mi NW 20.7 mph 29.9 mph N/A Snow Light Snow
6:35 AM 34.7 °F 23.4 °F 34.7 °F 100% 29.51 in 10.0 mi NW 20.7 mph 31.1 mph 0.01 in Rain Light Rain
6:55 AM 34.7 °F 23.4 °F 34.7 °F 100% 29.53 in 10.0 mi NW 20.7 mph 25.3 mph 0.02 in Rain Light Rain
7:15 AM 34.9 °F 23.0 °F 34.9 °F 100% 29.54 in 10.0 mi NNW 23.0 mph 33.4 mph 0.01 in   Overcast
7:35 AM 35.1 °F 22.2 °F 35.1 °F 100% 29.54 in 7.0 mi NNW 27.6 mph 38.0 mph 0.02 in   Overcast
7:55 AM 35.1 °F 21.8 °F 35.1 °F 100% 29.55 in 7.0 mi NW 29.9 mph 38.0 mph 0.03 in   Overcast
8:15 AM 35.2 °F 22.3 °F 35.2 °F 100% 29.56 in 10.0 mi NNW 28.8 mph 38.0 mph 0.01 in   Overcast
8:35 AM 35.6 °F 22.7 °F 35.6 °F 100% 29.57 in 10.0 mi NW 28.8 mph 40.3 mph 0.02 in   Overcast
8:55 AM 35.8 °F 23.2 °F 35.8 °F 100% 29.57 in 10.0 mi NW 27.6 mph 41.4 mph 0.03 in   Overcast
9:15 AM 36.1 °F 23.7 °F 36.1 °F 100% 29.58 in 10.0 mi NW 27.6 mph 39.1 mph N/A   Overcast
9:35 AM 36.5 °F 24.9 °F 35.8 °F 97% 29.59 in 10.0 mi NW 24.2 mph 34.5 mph N/A   Overcast
9:55 AM 36.5 °F 25.4 °F 36.5 °F 100% 29.59 in 5.0 mi NW 21.9 mph 34.5 mph N/A   Overcast
10:15 AM 36.5 °F 24.4 °F 36.5 °F 100% 29.59 in 4.0 mi NW 26.5 mph 38.0 mph N/A   Overcast
10:35 AM 37.0 °F 25.1 °F 37.0 °F 100% 29.60 in 5.0 mi NW 26.5 mph 36.8 mph N/A   Overcast
10:55 AM 37.4 °F 25.0 °F 37.4 °F 100% 29.61 in 4.0 mi NW 29.9 mph 39.1 mph 0.01 in Rain Light Rain
11:15 AM 37.4 °F 25.4 °F 37.4 °F 100% 29.62 in 4.0 mi NW 27.6 mph 38.0 mph 0.01 in Rain Light Rain
11:35 AM 37.4 °F 25.0 °F 37.4 °F 100% 29.63 in 2.0 mi NW 29.9 mph 38.0 mph 0.02 in Rain Light Rain
11:55 AM 37.4 °F 25.6 °F 37.4 °F 100% 29.64 in 1.5 mi NW 26.5 mph 41.4 mph 0.03 in Rain Light Rain
12:15 PM 37.4 °F 25.6 °F 37.4 °F 100% 29.65 in 3.0 mi NW 26.5 mph 41.4 mph 0.01 in Rain Light Rain
12:35 PM 37.6 °F 25.4 °F 37.6 °F 100% 29.66 in 3.0 mi NW 28.8 mph 40.3 mph 0.02 in Rain Light Rain
12:55 PM 38.3 °F 27.3 °F 38.3 °F 100% 29.67 in 4.0 mi NW 24.2 mph 39.1 mph 0.02 in Rain Light Rain
1:15 PM 39.2 °F 27.6 °F 39.2 °F 100% 29.68 in 4.0 mi NW 28.8 mph 36.8 mph 0.01 in   Light Drizzle
1:35 PM 38.5 °F 26.6 °F 38.5 °F 100% 29.69 in 2.5 mi NW 28.8 mph 35.7 mph 0.01 in Rain Light Rain
1:55 PM 37.8 °F 26.1 °F 37.8 °F 100% 29.69 in 5.0 mi NW 26.5 mph 38.0 mph 0.02 in Rain Light Rain
2:15 PM 38.8 °F 26.5 °F 38.8 °F 100% 29.70 in 10.0 mi NW 32.2 mph 42.6 mph N/A   Light Drizzle
2:35 PM 39.7 °F 27.9 °F 39.7 °F 100% 29.70 in 7.0 mi NW 31.1 mph 42.6 mph N/A   Overcast
2:55 PM 40.1 °F 28.8 °F 39.7 °F 99% 29.71 in 10.0 mi NW 28.8 mph 42.6 mph N/A   Overcast
3:15 PM 40.1 °F 28.4 °F 39.2 °F 97% 29.73 in 10.0 mi NW 31.1 mph 42.6 mph N/A   Overcast
3:35 PM 40.6 °F 29.8 °F 38.7 °F 93% 29.74 in 10.0 mi NNW 27.6 mph 46.0 mph N/A   Light Drizzle
3:55 PM 39.4 °F 27.3 °F 37.8 °F 94% 29.76 in 7.0 mi NNW 32.2 mph 49.5 mph 0.01 in Rain Light Rain
4:15 PM 39.6 °F 28.1 °F 37.9 °F 94% 29.77 in 10.0 mi NNW 28.8 mph 46.0 mph N/A Rain Light Rain
4:35 PM 42.4 °F 32.2 °F 36.1 °F 78% 29.78 in 10.0 mi NNW 27.6 mph 39.1 mph N/A   Overcast
4:55 PM 43.5 °F 33.8 °F 33.4 °F 68% 29.79 in 10.0 mi NNW 26.5 mph 38.0 mph N/A   Overcast
5:15 PM 44.1 °F 34.6 °F 32.7 °F 64% 29.80 in 10.0 mi NW 26.5 mph 33.4 mph N/A   Overcast
5:35 PM 44.8 °F 34.3 °F 28.9 °F 54% 29.81 in 10.0 mi NNW 34.5 mph 44.9 mph N/A   Mostly Cloudy
5:55 PM 44.8 °F 35.5 °F 30.0 °F 56% 29.82 in 10.0 mi NNW 26.5 mph 38.0 mph N/A   Scattered Clouds
6:15 PM 44.2 °F 35.7 °F 31.1 °F 60% 29.83 in 10.0 mi NNW 21.9 mph 27.6 mph N/A   Mostly Cloudy
6:30 PM 43.9 °F 36.5 °F 32.0 °F 63% 29.83 in 10.0 mi NW 16.1 mph 23.0 mph N/A   Scattered Clouds
6:55 PM 43.3 °F 34.5 °F 31.5 °F 63% 29.84 in 10.0 mi NW 21.9 mph 31.1 mph N/A   Clear
7:15 PM 44.1 °F 35.7 °F 28.4 °F 54% 29.85 in 10.0 mi NW 20.7 mph 25.3 mph N/A   Clear
7:35 PM 43.7 °F 35.7 °F 28.0 °F 54% 29.86 in 10.0 mi NW 18.4 mph 26.5 mph N/A   Clear
7:55 PM 42.8 °F 35.4 °F 28.4 °F 57% 29.87 in 10.0 mi NW 15.0 mph 25.3 mph N/A   Clear
8:15 PM 41.9 °F 34.0 °F 29.1 °F 61% 29.88 in 10.0 mi NW 16.1 mph 23.0 mph N/A   Clear
8:35 PM 41.9 °F 34.0 °F 29.1 °F 61% 29.88 in 10.0 mi NW 16.1 mph - N/A   Clear
8:55 PM 42.3 °F 33.8 °F 28.4 °F 58% 29.88 in 10.0 mi NW 18.4 mph 25.3 mph N/A   Clear
9:15 PM 41.9 °F 33.4 °F 28.4 °F 59% 29.89 in 10.0 mi NW 18.4 mph 24.2 mph N/A   Clear
9:35 PM 41.2 °F 33.7 °F 28.9 °F 62% 29.89 in 10.0 mi NW 13.8 mph 20.7 mph N/A   Clear
9:55 PM 40.5 °F 32.8 °F 28.9 °F 64% 29.90 in 10.0 mi NW 13.8 mph - N/A   Clear
10:15 PM 40.8 °F 32.6 °F 28.6 °F 62% 29.90 in 10.0 mi NW 16.1 mph - N/A   Clear
10:35 PM 40.1 °F 32.4 °F 28.9 °F 64% 29.91 in 10.0 mi NW 13.8 mph - N/A   Clear
10:55 PM 39.0 °F 31.8 °F 28.9 °F 67% 29.92 in 10.0 mi NW 11.5 mph - N/A   Clear
11:15 PM 38.3 °F 30.9 °F 28.9 °F 69% 29.92 in 10.0 mi NW 11.5 mph - N/A   Clear
11:55 PM 38.5 °F 30.3 °F 28.9 °F 69% 29.92 in 10.0 mi NW 13.8 mph 20.7 mph N/A   Clear